Simultaneous Nadir Overpasses (SNOs) Predictions

Prediction of SNOs between AURA and NPP Satellite Orbit:

Table of predicted SNOs for the next 14.0 days since TLE Epoch: 6/22/2018
Index Date (AURA) Time (AURA) Lat,Lon (AURA) SZA (AURA ) Date (NPP) Time (NPP) Lat,Lon (NPP) SZA (NPP ) Distance(km) Time Diff (sec)
1 06/23/2018 11:25:26 79.27, -96.06 69.81 06/23/2018 11:24:36 79.26, -96.18 69.87 2.83 50
2 06/23/2018 12:14:45 -79.59, 73.75 110.67 06/23/2018 12:15:11 -79.60, 73.87 110.72 2.65 26
3 06/26/2018 03:41:52 79.35, 20.37 69.77 06/26/2018 03:41:28 79.35, 20.31 69.80 1.28 24
4 06/26/2018 04:31:13 -79.60,-170.30 110.60 06/26/2018 04:32:06 -79.59,-170.40 110.62 2.22 53
5 06/28/2018 19:10:16 -75.72, -47.15 105.48 06/28/2018 19:09:02 -75.94, -48.34 105.32 41.06 74
6 06/28/2018 19:58:17 79.47, 137.05 69.73 06/28/2018 19:58:19 79.48, 137.08 69.72 0.84 2
7 07/01/2018 11:25:25 -79.22, 83.65 109.73 07/01/2018 11:24:36 -79.21, 83.50 109.67 3.15 49
8 07/01/2018 12:14:43 79.51,-106.81 69.86 07/01/2018 12:15:12 79.50,-106.95 69.86 3.07 29
9 07/04/2018 03:41:49 -79.37,-159.48 109.73 07/04/2018 03:41:26 -79.37,-159.49 109.71 0.13 23
10 07/04/2018 04:31:08 79.62, 9.84 69.92 07/04/2018 04:32:03 79.62, 9.83 69.88 0.16 55
11 07/06/2018 19:08:55 79.14, 147.29 70.88 07/06/2018 19:07:42 79.14, 147.19 70.96 2.18 73




NCC Satellite Simultaneous Nadir Overpasses (SNOs) Prediction Service
